Weather in Seserlig

Russia / Tyva Republic     51°52′29″N   94°15′45″E
temp.,
°C
wind,
m/s
gust,
m/s
humid.,
%
clouds,
%
prec.,
mm/h
press.,
hPa
HPBL,
m
29 november, mon
mon2901:00−17nnw1191100 0.1 104511
04:00−16nnw1193100 0.1 104610
07:00−17nnw119598 0.1 10479
10:00−16nw119566 0.0 104819
13:00−14ese119299 0.0 1046127
16:00−15nnw1195100 0.0 104510
19:00−16nw2291100 0.0 104510
22:00−17nnw1191100 0.0 104410
30 november, tue
tue3001:00−18nw119251 0.0 10449
04:00−18nw1195100 0.0 10439
07:00−19wnw119795 0.0 10439
10:00−18sse009887 0.0 104432
13:00−15se119382 0.0 104190
16:00−17wnw119699 0.0 104110
19:00−18nnw1194100 0.0 10419
22:00−18wnw1194100 0.0 10429
1 december, wed
wed101:00−20nw119647 0.0 10439
04:00−20nw119698 0.0 10439
07:00−21nw119879 0.0 10449
10:00−19wnw109784 0.0 104527
13:00−16se119565 0.0 104497
16:00−18nw119713 0.0 104410
19:00−20nw22947 0.0 10449
22:00−21nw219541 0.0 10459
2 december, thu
thu201:00−21nw119749 0.0 10459
04:00−22nw119873 0.0 10449
07:00−22wnw119988 0.0 10459
10:00−21nw119985 0.0 104423
13:00−17sse119440 0.0 104286
16:00−19nw11975 0.0 10419
19:00−21nw22917 0.0 10429
22:00−22nw119233 0.0 10429
3 december, fri
fri301:00−23nw119442 0.0 10429
04:00−24wnw119852 0.0 10429
07:00−24nw1110059 0.0 10429
10:00−22wnw009986 0.0 104221
13:00−18sse119754 0.0 103983
16:00−20nw119848 0.0 10379
19:00−22nw119437 0.0 10369
22:00−23wnw119661 0.0 10369